ATLAS 5 CENTAUR DEB, 44666

Orbit data source: Space-Track

ATLAS 5 CENTAUR DEB, 44666 is space debris in HEO originally from a launch on Wed, 17 Oct 2018 UTC launched from the Air Force Eastern Test Range (AFETR). Debris objects in space refer to the collection of defunct objects orbiting the Earth. Examples of debris include non-operational satellites, rocket bodies, and fragments generated from explosions, collisions, or faulty payload assembly.

Loading next visibility...
Identifier
44666, 2018-079AC
Orbit
HEO
Last TLE update
1 day ago
Origin
Flag of USUnited Launch Alliance/Lockheed Martin (US)
Manufacturer
ULA Decatur
Mission
Spacecraft
Bus & Motor
Unknown
Mass
Unknown
Launch date (UTC)
2018-10-17 (7 years ago)
Launch vehicle
Unknown
Launch site
Air Force Eastern Test Range (AFETR)
Object type
Payload
Rocket body
Debris
Shape & HBR
Unknown
Radar Cross Section
RCS unknown

Expand to show TLE details & history

TLE from 1 day ago
0 ATLAS 5 CENTAUR DEB
1 44666U 18079AC  25198.70635165 -.00000103  00000-0  00000-0 0  9994
2 44666  12.6807  60.6496 4447406 275.7178  36.7730  1.90664674 42644
Epoch: 2025-07-17T16:57Z
TLE epoch observation values (Epoch: 2025-07-17T16:57:08.782Z)
Latitude
0.00005°
Longitude
-129.37757°
Altitude
14,743.97 km
Speed
4.82 km/s
True Right ascension
04h 02m 42s
True Declination
0° 00' 00"
Sunlit
Object was in daylight at epoch
Visualization orbit readout
Latitude
12.5029°
Longitude
-29.19146°
Altitude
33,224.037 km
Speed
2.371 km/s
Apparent Right ascension
10h 30m 31s
Apparent Declination
7° 28' 55"
Sunlit
Object is in daylight
Visualization observer readout
Local Sidereal Time
12:16:11
Azimuth
223.189° SW
Elevation
49.872°
Doppler factor
1
Orbital elements
Apogee altitude
33,314.616 km
Perigee altitude
8,877.04 km
Semi-major axis
27,473.965 km
Eccentricity
0.44474
Inclination
12.6807°
RAAN
60.6496°
Arg. of periapsis
275.7178°
True anomaly
84.18579°
Mean anomaly
36.773°
Eccentric anomaly
58.4997°
Mean motion
0.47661 °/min
Orbital period
755.34 mins
BSTAR
0
Loading maneuver chart data...
Loading SW <> Apogee altitude chart data...
|